This demonstration page uses our WeatherBlox Daily Observations layout. Learn more.

Left ArrowRight Arrow

Hourly Observations for June 22, 2021

Temp ( °F °C ) Dew Point ( °F °C ) Humidity (%) Winds ( mph kmh ) Pressure ( in mb ) Visibility ( mi km ) Precip ( " mm )
12:53 am 00:53 Cloudy 74 23.3 58 14.4 57 57 E 15 24 29.94 1014 10 16 0.00 0.00
1:13 am 01:13 Cloudy 73 22.8 58 14.4 59 59 ENE 16 26 29.93 1014 10 16 0.00 0.00
1:53 am 01:53 Clear 73 22.8 57 13.9 57 57 ENE 17 28 29.92 1013 10 16 0.00 0.00
2:53 am 02:53 Mostly Clear 71 21.7 57 13.9 61 61 E 16 26 29.92 1013 10 16 0.00 0.00
3:10 am 03:10 Mostly Cloudy 71 21.7 57 13.9 61 61 ENE 12 19 29.95 1014 10 16 0.00 0.00
3:53 am 03:53 Cloudy 71 21.7 57 13.9 61 61 E 15 24 29.94 1014 10 16 0.00 0.00
4:50 am 04:50 Cloudy 72 22 57 14 61 61 ENE 13 20 29.96 1015 10 16 0.00 0.00
4:53 am 04:53 Cloudy 71 21.7 57 13.9 61 61 ENE 14 22 29.94 1014 10 16 0.00 0.00
5:19 am 05:19 Cloudy 71 21.7 57 13.9 61 61 E 12 19 29.95 1014 10 16 0.00 0.00
5:53 am 05:53 Cloudy 70 21.1 56 13.3 61 61 ENE 9 15 29.95 1014 10 16 0.00 0.00
6:53 am 06:53 Cloudy 69 20.6 56 13.3 63 63 ESE 9 15 29.97 1015 10 16 0.00 0.00
7:35 am 07:35 Cloudy 68 20 57 13.9 68 68 E 9 15 30.01 1016 10 16 0.00 0.00
7:53 am 07:53 Cloudy 68 20 57 13.9 68 68 E 8 13 29.99 1016 10 16 0.00 0.00
8:53 am 08:53 Cloudy 69 20.6 58 14.4 68 68 E 5 7 29.98 1015 10 16 0.00 0.00
9:31 am 09:31 Cloudy 70 21.1 58 14.4 66 66 VRB 5 7 30.01 1016 10 16 0.00 0.00
9:53 am 09:53 Cloudy 71 21.7 59 15 66 66 Calm 30.01 1016 10 16 0.00 0.00
10:53 am 10:53 Partly Cloudy 73 22.8 59 15 62 62 VRB 3 6 29.98 1015 10 16 0.00 0.00
11:53 am 11:53 Sunny 79 26.1 60 15.6 52 52 VRB 6 9 29.95 1014 10 16 0.00 0.00
12:53 pm 12:53 Sunny 81 27.2 61 16.1 51 51 SW 5 7 29.93 1014 10 16 0.00 0.00
1:53 pm 13:53 Sunny 85 29.4 61 16.1 45 45 undefined N/A 29.89 1012 10 16 0.00 0.00
2:53 pm 14:53 Sunny 90 32.2 60 15.6 37 37 S 14 22 29.85 1011 10 16 0.00 0.00
3:53 pm 15:53 Sunny 91 32.8 60 15.6 35 35 S 6 9 29.82 1010 10 16 0.00 0.00
4:53 pm 16:53 Sunny 94 34.4 59 15 31 31 S 16 26 29.78 1009 10 16 0.00 0.00
5:53 pm 17:53 Sunny 96 35.6 60 15.6 30 30 SSE 10 17 29.75 1007 10 16 0.00 0.00
6:53 pm 18:53 Sunny 96 35.6 59 15 29 29 SSE 12 19 29.72 1006 10 16 0.00 0.00
7:53 pm 19:53 Sunny 95 35 60 15.6 31 31 SSE 14 22 29.72 1006 10 16 0.00 0.00
8:53 pm 20:53 Sunny 92 33.3 60 15.6 34 34 SE 17 28 29.73 1007 10 16 0.00 0.00
9:53 pm 21:53 Clear 90 32.2 58 14.4 34 34 SSE 16 26 29.77 1008 10 16 0.00 0.00
10:53 pm 22:53 Clear 87 30.6 60 15.6 40 40 SSE 18 30 29.79 1009 10 16 0.00 0.00
11:53 pm 23:53 Clear 85 29.4 62 16.7 46 46 SSE 20 31 29.79 1009 10 16 0.00 0.00

Powered by AerisWeather